Location: Veytaux
(46.4185°N, 6.9320°E)
Time: 07:45:48
(UTC+00:00)

Cosmos 1328 - Pass Details

Date: 27 May 2022
Orbit: 524 x 551 km, 82.5° (Epoch: 01 July)

Event Time Altitude Azimuth Distance (km) Brightness Sun altitude
Exits shadow 02:45:43 - 199° (SSW) 1,836 5.9 -9.1°
Reaches altitude 10° 02:45:50 10° 199° (SSW) 1,790 5.9 -9.1°
Maximum altitude 02:49:44 62° 281° (W) 612 3.9 -8.6°
Drops below altitude 10° 02:53:43 10° 3° (N) 1,823 7.2 -8.1°
Sets 02:55:55 0° 7° (N) 2,725 8.2 -7.8°
